Location: Gebenbach
(49.5378°N, 11.8735°E)
Time: 10:43:37
(UTC+00:00)

NOSS 3-4 (A) - Pass Details

Date: 29 October 2020
Orbit: 885 x 1327 km, 63.4° (Epoch: 06 November)

Event Time Altitude Azimuth Distance (km) Brightness Sun altitude
Rises 17:52:49 0° 316° (NW) 3,762 7.3 -19.6°
Reaches altitude 10° 17:55:20 10° 319° (NW) 2,867 6.5 -20.0°
Maximum altitude 18:02:10 69° 43° (NE) 1,213 3.8 -21.1°
Enters shadow 18:05:39 34° 117° (ESE) 1,840 4.4 -21.7°
